Regional Weather Roundup
Issued by NWS Wakefield, VA

Home | Current Version | Previous Version | Text Only | Print | Product List | Glossary Off
Versions: 1 2 3 4 5 6 7 8 9 10 11 12 13 14 15 16 17 18 19 20 21 22 23 24 25 26 27 28 29 30 31 32 33 34 35 36 37 38 39 40 41 42 43 44 45 46 47 48 49 50

000
ASUS41 KAKQ 210010
RWRAKQ

REGIONAL WEATHER ROUNDUP
NATIONAL WEATHER SERVICE WAKEFIELD VA
800 PM EDT MON OCT 20 2014

Note: "fair" indicates few or no clouds below 12,000 feet with no
significant weather and/or obstructions to visibility. * = Denotes
station may not report precipitation (e.g., rain,snow,etc.),
thunder or fog.

VAZ042-051-052>054-056-210100-
NORTHERN VIRGINIA

CITY           SKY/WX    TMP DP  RH WIND       PRES   REMARKS
WASH NATIONAL  CLOUDY    63  46  54 S10       29.96S
DULLES         MOCLDY    57  47  69 SE3       29.95R
FORT BELVOIR   MOCLDY    54  50  86 SE3       29.96S
QUANTICO       MOCLDY    62  50  64 SW8       29.97R
FREDERICKSBRG* MOCLDY    60  47  61 S7        29.96R
STAFFORD*      MOCLDY    58  45  62 S3        30.00S
WARRENTON      MOCLDY    60  53  78 SE3       29.94S
CULPEPER*      MOCLDY    55  48  76 CALM      29.95S
MANASSAS*      MOCLDY    55  50  82 S5        29.95S
LEESBURG*      MOCLDY    55  52  88 NW3       29.96R
WINCHESTER     CLOUDY    55  46  71 NW5       29.95R
FRONT ROYAL*   CLOUDY    55  46  71 W3        29.93S
LURAY*         CLOUDY    59  46  63 N3        29.94S
$$

VAZ048-049-060>072-079>083-210100-
CENTRAL AND SOUTH CENTRAL VIRGINIA...AND NORTH CENTRAL NORTH CAROLINA

CITY           SKY/WX    TMP DP  RH WIND       PRES   REMARKS
RICHMOND       MOCLDY    54  43  66 S7        29.99R
CHESTERFIELD*  CLEAR    N/A N/A N/A S5        30.00R
PETERSBURG*    CLEAR     47  45  92 S3        30.00S
HANOVER        PTCLDY    58  44  60 VRB6      30.00R
TAPPAHANNOCK*  PTCLDY    56  40  55 CALM      30.00R
CHARLOTTSVILLE MOCLDY    60  48  64 S7        29.94R
ORANGE*        MOCLDY    59  50  72 SE3       29.97R
LOUISA*        MOCLDY    57  48  72 S5        29.95S
FARMVILLE*     PTCLDY    57  46  67 S5        29.96S
CREWE*         PTCLDY    51  47  86 CALM      29.98S
FORT PICKETT*  PTCLDY    54  46  76 S6        29.99S
LUNENBURG*     PTCLDY    54  49  85 CALM      29.99S
SOUTH HILL*    PTCLDY    54  52  94 CALM      30.05S
LAWRENCEVILLE* PTCLDY    53  49  85 CALM      30.00R
ROANOKE RAPIDS PTCLDY    50  48  93 CALM      30.01S
RALEIGH        PTCLDY    56  49  77 CALM      30.01R
$$

VAZ088>098-210100-
SOUTHEAST VIRGINIA

CITY           SKY/WX    TMP DP  RH WIND       PRES   REMARKS
NORFOLK        PTCLDY    60  47  61 CALM      30.01R
VIRGINIA BEACH MOCLDY    61  43  51 S5        30.01R
NORFOLK NAVAL  MOCLDY    63  46  54 SE3       30.02S
WEST POINT*    MOCLDY    55  47  76 CALM      30.02R
NEWPORT NEWS   MOCLDY    58  50  75 CALM      30.00S
LANGLEY AFB    CLOUDY    57  50  77 S6        30.01R
FORT EUSTIS    MOCLDY    61  51  68 VRB3      29.99R
WILLIAMSBURG*  MOCLDY    57  54  88 SW5       30.01R
HR EXEC AP*    PTCLDY    48  45  87 CALM      30.03S
FRANKLIN*      CLEAR     54  50  87 CALM      30.02R
WAKEFIELD      PTCLDY    55  51  86 CALM      30.00R
$$

VAZ020-022-025-037-045-210100-
WEST CENTRAL AND SOUTHWEST VIRGINIA

CITY           SKY/WX    TMP DP  RH WIND       PRES   REMARKS
STAUNTON*      CLOUDY    61  46  59 S7        29.96S
HOT SPRINGS VA CLOUDY    48  42  78 W17       29.96S
LYNCHBURG      CLOUDY    56  48  74 S5        29.97S
DANVILLE       PTCLDY    59  47  64 S3        29.98S
SOUTH BOSTON*  NOT AVBL
MARTINSVILLE   MOCLDY    59  51  74 CALM      30.00S
ROANOKE        CLOUDY    63  39  41 W15G22    29.98R
BLACKSBURG     CLOUDY    54  46  76 CALM      30.00F
DUBLIN*        CLOUDY    56  47  71 W5        29.99F
MARION*        CLOUDY    55  46  74 W3        30.02R
HILLSVILLE*    CLOUDY    54  46  74 SE3       29.99S
RICHLANDS*     CLOUDY    56  46  67 SW7       29.99R
WISE*          CLOUDY    54  45  71 SW9       30.00R
ABINGDON*      MOCLDY    55  49  80 NW3       29.99S
$$

MDZ021>025-VAZ099-100-210100-
SOUTHERN MARYLAND AND THE DELMARVA PENINSULA

CITY           SKY/WX    TMP DP  RH WIND       PRES   REMARKS
PATUXENT RIVER MOCLDY    58  42  55 SE3       29.98S
BAY BRIDGE APT   N/A     59  45  58 SE9       29.97S
LEONARDTOWN    MOCLDY    59  41  51 S3        29.99S
DOVER          PTCLDY    54  43  65 S8        29.97S
GEORGETOWN     MOCLDY    54  44  69 CALM      30.01R
EASTON         MOCLDY    57  46  67 CALM      30.02R
CAMBRIDGE      MOCLDY    59  45  58 S3        29.99R
SALISBURY      MOCLDY    51  45  79 SE3       30.00S
OCEAN CITY     PTCLDY    59  47  64 SW7       30.01R
WALLOPS ISLAND MOCLDY    60  46  59 SW8       30.01R
ACCOMACK*      MOCLDY    52  46  82 S8        30.00S
$$

NCZ012>017-030>032-210100-
EASTERN NORTH CAROLINA

CITY           SKY/WX    TMP DP  RH WIND       PRES   REMARKS
ELIZABETH CITY CLEAR     61  52  72 S5        30.03R
AHOSKIE*       PTCLDY    54  51  89 CALM      30.02R
EDENTON*       PTCLDY    64  55  75 S9        30.02S
CURRITUCK*     CLEAR     62  52  69 CALM      30.03R
KILL DEVIL HLS PTCLDY    62  56  80 CALM      30.02R
MANTEO         PTCLDY    62  56  80 SE5       30.03S
CAPE HATTERAS  PTCLDY    69  58  67 S9        30.04R
TARBORO*       MOCLDY    56  54  93 CALM      30.01S
GOLDSBORO      PTCLDY    61  58  91 SE2       29.99R
WASHINGTON     CLEAR     63  55  77 S3        30.02S
GREENVILLE     PTCLDY    63  55  77 S3        30.03R
NEW BERN       PTCLDY    63  55  75 S5        30.04R
WILMINGTON     PTCLDY    62  58  86 CALM      30.02R
$$

VAZ048-210100-
ELSEWHERE

CITY           SKY/WX    TMP DP  RH WIND       PRES   REMARKS
HARRISBURG PA  CLOUDY    57  45  64 S5        29.93F
BALTIMORE      MOCLDY    58  45  62 S5        29.95S
ANNAPOLIS      MOCLDY    61  43  51 S9        29.96S
ANDREWS AFB    CLOUDY    55  46  69 S6        29.96S
WILMINGTON DE  MOCLDY    58  43  57 S8        29.98S
PHILADELPHIA   MOCLDY    57  45  64 S7        29.98S
WILDWOOD NJ*   PTCLDY    61  43  51 S9        30.01S
ATLANTIC CITY  CLOUDY    59  45  59 SW9       30.00R
HENDERSON NC   CLEAR     55  47  76 S3        30.00R
GREENSBORO     MOCLDY    61  47  59 S3        29.98S
ROCKY MOUNT    CLEAR     55  52  89 CALM      30.00S
FAYETTEVILLE   PTCLDY    64  53  67 S5        30.00R
CHARLOTTE      PTCLDY    62  49  62 CALM      30.01R
$$

VAZ100-210100-
MARINE

STATION/POSITION TIME  TEMP    WIND        PRES    WAVE   SWELL
                       AIR SEA DIR/SP/G            HT/PER HT/PER
                 (UTC) (F)     (DEG/KT/KT) (MB)    (FT/S) (FT/S)
44066 TX TWR #4  0000   62 66  220/ 17/ 19 1016.5S   3/ 4   2/11
CAPE MAY NJ      0000   62 67  200/ 13/ 17 1015.4S
LEWES DE         0000   59 62  220/  2/  4 1015.7R
15NM E FENWICK I 0000   64 66  200/ 19/ 23 1015.7R   5/ 5   2/12
OCEAN-CITY-INLET 0000   62 66  230/  8/ 10 1015.7R
WACHAPREAGUE VA  0000   58 62  200/  2/  2 1016.0F
THOMAS POINT MD  0000   63 64  190/ 19/ 21 1015.7R
GOOSES REEF MD   0000   63     200/ 12/ 16 1015.4S
COVE POINT MD    0000   62     200/ 11/ 12 1015.0F
SOLOMONS ISLAND  0000      66                N/A
BISHOPS HEAD MD  0000   61 58  190/  6/  7 1015.1R
PINEY POINT MD   0000          200/ 10/ 11   N/A
POTOMAC MD       0000   63     200/ 10/ 14 1014.9S
CAMBRIDGE MD     0000   59 63  180/  4/  6 1015.1F
LEWISETTA VA     0000   59 63  170/  4/  5 1015.0S
RAPPAHANNOCK LGT 0000          170/ 11/ 15 1016.1R
STINGRAY PT      0000   65     190/ 10/ 12 1016.2R
YORK RVR RNG VA  0000   65     190/  9/ 11 1015.3R
YORKTOWN VA      0000   61 67  180/  5/  7 1015.3S
JAMESTOWN VA     0000   61     220/  4/  4   N/A
DOMINION TERM VA 0000   65     180/  4/  5 1016.0R
KIPTOPEKE VA     0000      70  210/ 10/ 11   N/A
CHES BAY BRIDGE  0000   65 68  170/  6/  7 1015.6S
CHESAPEAKE LGHT  2300   67     210/ 13/ 14 1016.6R
WILLOUBY STN VA  0000   64     160/  7/  8 1014.7R
S CRANEY ISL VA  0000          150/  7/  8 1015.8S
CAPE HENRY BUOY  0000      69                N/A     2/13   2/13
1ST LANDING BUOY 0000   66     180/  8/ 10 1015.8S
CAPE CHARLES BUO 0000      69                N/A     3/13   2/13
64NM E OF VA BCH 0000   69 69  200/ 19/ 21 1016.0R   3/ 4   2/12
DUCK PIER NC     0000   64 69  180/  8/ 10 1016.0S
44100 DUCK FRF   0000      71                N/A     3/12   2/12
44056 DUCK FRF   0000                        N/A     2/12   2/12
OREGON INLET NC  0000   66 67  160/  5/  7 1016.8R
HATTERAS NC      0000   71 69  180/  6/ 10 1017.4R
DIAMOND SHLS NC  0000   71     180/ 17/ 19 1017.2R   4/ 8   3/ 8
CAPE LOOKOUT NC  2300   71     170/ 12/ 14 1016.3F
$$


USA.gov is the U.S. government's official web portal to all federal, state and local government web resources and services.